RH
33 39 47 44 40 33 32 39 41 36 32 34 38 40 35 27 25 26 45 43 47 47 44 42 43 47 44 69 79 81 76 69 75 69 68 75 76 91 92 89 85 85 83 76
42 50 34 36 38 38 41 44 47 42 35 38 38 37 30 28 40 52 57 55 53 49 41 38 35 36 40 52 57 63 68 76 81 85 79 84 77 74 86 92 88 85 87 82
41 38 34 39 44 44 45 48 48 48 41 28 31 34 30 33 51 58 64 65 58 54 50 44 40 38 35 33 33 32 33 49 47 54 87 100 98 95 80 86 92 99 94 85
43 34 35 44 47 44 53 42 42 46 36 47 28 48 28 35 60 72 77 72 63 54 47 44 42 30 25 24 28 31 37 38 52 72 99 100 100 100 89 84 86 85 94 86
48 41 42 41 39 41 44 33 42 42 36 31 30 37 36 41 59 75 80 74 60 52 47 44 27 22 22 19 18 18 26 31 77 99 91 94 96 97 99 100 98 95 97 93
44 31 37 39 36 37 30 32 37 40 38 49 36 35 39 42 54 77 75 71 60 53 44 28 25 22 19 18 18 17 18 20 32 60 91 98 99 99 98 98 96 98 99 99
62 57 29 25 28 27 27 35 49 50 54 52 44 38 32 74 73 70 71 61 59 58 42 34 30 29 27 26 24 24 26 30 33 49 70 73 98 100 99 99 100 100 97 98
84 79 52 34 36 37 34 33 58 56 59 51 54 53 43 72 74 68 65 60 56 48 32 32 33 27 28 29 28 26 24 25 35 35 52 94 90 76 97 100 100 100 100 99
59 53 31 29 29 32 44 41 34 60 71 73 60 61 69 75 77 71 61 53 39 31 23 16 14 17 15 18 22 27 26 27 42 40 38 65 93 99 96 86 96 99 99 98
42 49 34 27 27 28 41 41 57 80 77 65 62 67 60 90 84 59 57 52 36 26 23 18 19 20 21 24 25 27 34 37 48 49 42 53 82 97 100 100 98 99 100 98
36 51 41 31 36 40 45 61 67 72 86 81 82 57 54 74 62 51 53 38 31 26 22 22 21 22 21 20 19 21 33 37 55 54 46 43 60 83 100 100 100 100 100 95
38 52 52 41 45 38 38 45 59 84 83 94 91 74 56 61 56 46 39 26 22 20 20 22 21 20 22 28 18 17 22 40 52 58 59 54 51 75 97 100 99 100 98 100
48 61 64 47 39 40 42 43 55 69 74 88 84 75 58 40 38 26 24 22 20 21 25 26 25 24 29 32 28 31 33 43 52 70 64 60 63 87 93 92 95 100 100 100
45 54 56 70 52 52 56 49 49 60 78 68 61 51 42 38 36 30 26 24 23 26 29 29 27 30 35 38 40 46 41 50 58 69 63 60 56 86 96 96 99 100 100 100
49 62 65 57 51 49 50 55 56 59 58 60 48 47 37 36 35 31 28 26 29 33 34 36 38 44 48 47 45 53 45 54 72 71 72 65 62 93 98 99 100 99 100 100
52 77 58 72 52 49 54 55 56 57 53 51 52 54 35 30 28 30 30 34 43 48 53 57 57 58 63 50 56 57 50 68 83 82 80 71 62 88 100 97 100 99 100 100
80 91 94 93 52 40 63 43 51 56 45 45 52 38 32 36 35 32 46 59 61 61 57 63 64 65 73 56 53 45 55 82 85 84 88 78 81 94 98 99 99 100 100 100
83 86 83 85 47 80 41 33 34 42 40 42 36 35 36 38 42 55 58 58 55 49 59 62 71 76 74 66 54 54 74 84 70 78 85 75 88 100 100 100 99 98 99 99
50 63 87 89 73 49 38 34 40 46 54 40 42 41 47 55 70 67 45 50 54 58 65 68 81 88 78 87 82 85 86 75 70 57 83 75 81 99 99 99 99 99 100 100
53 53 68 88 76 68 37 48 45 52 69 51 55 64 69 74 94 71 42 52 47 50 57 65 83 85 74 95 87 94 86 86 62 63 90 84 85 100 99 100 100 100 100 100
69 77 75 82 81 67 45 55 57 77 60 54 59 63 67 91 71 39 46 45 46 46 48 58 87 88 79 88 85 92 80 76 77 83 93 86 83 93 100 100 100 100 100 99
67 86 90 89 91 88 65 69 75 60 50 46 45 46 61 52 47 49 47 44 46 49 47 60 78 86 78 74 73 78 80 77 95 95 89 86 85 88 94 98 99 99 99 100
71 74 82 77 78 58 59 49 42 35 41 39 41 38 49 52 52 47 51 51 47 53 53 73 83 96 87 79 64 64 68 80 86 96 98 97 94 91 94 95 100 100 100 98
57 64 82 67 59 62 49 53 52 38 42 40 38 48 49 54 48 50 51 52 53 48 54 78 78 97 92 56 72 67 53 66 85 98 99 98 98 98 97 100 98 98 99 98
62 68 68 70 56 50 43 37 34 38 44 48 50 50 41 58 54 52 51 54 51 44 48 63 81 77 83 79 67 96 70 45 71 94 100 97 98 98 100 100 98 99 100 99
70 69 74 81 48 46 41 32 38 48 50 46 45 46 46 58 61 61 58 56 60 54 50 59 69 82 88 85 61 60 79 77 55 61 97 99 98 100 99 98 99 98 98 100
Wind_Speed
4 4 10 11 7 4 3 3 8 5 3 3 8 8 12 19 13 9 15 19 19 20 18 17 17 17 8 6 13 18 26 32 35 38 41 41 42 41 41 40 38 39 40 38
2 9 12 5 6 7 5 4 8 10 4 4 7 8 11 9 6 12 16 18 16 16 17 17 17 14 13 12 10 10 18 25 30 35 41 43 44 45 44 43 41 39 41 41
10 7 9 8 5 6 6 8 8 8 8 4 5 7 5 5 12 13 16 15 15 15 17 19 21 23 22 19 16 13 13 18 21 26 34 40 44 46 46 47 46 43 40 42
9 8 8 5 6 10 11 8 12 7 1 4 2 6 4 5 5 6 12 14 14 16 18 21 24 27 29 29 27 27 23 16 14 20 30 37 39 43 46 46 47 46 43 42
8 8 10 15 13 9 7 6 9 7 5 1 2 3 5 4 4 2 5 6 10 13 16 19 23 26 26 28 30 30 28 27 17 15 20 29 35 38 43 43 45 49 47 44
7 3 7 10 7 10 3 5 4 4 3 5 10 8 5 6 5 4 2 2 6 11 14 20 22 24 27 29 29 28 28 25 23 18 19 30 34 34 39 39 43 46 45 47
16 19 3 5 4 3 5 5 1 1 1 6 2 9 4 2 4 6 6 2 5 7 14 20 23 24 26 28 29 28 27 26 24 19 20 23 31 36 39 40 43 44 43 46
10 6 15 7 24 12 7 9 5 6 4 2 4 7 4 3 6 6 4 6 9 12 20 21 22 25 26 27 28 30 31 30 28 24 23 21 26 30 33 37 39 41 42 44
6 4 2 2 2 17 8 10 7 3 1 1 5 2 3 4 2 1 5 8 13 20 26 32 32 33 33 31 29 29 30 30 29 25 22 23 23 29 33 33 37 41 40 41
5 2 0 2 2 4 6 6 4 2 6 9 4 5 4 7 6 1 3 8 16 23 25 28 26 26 26 27 28 28 30 28 27 24 22 19 20 21 28 32 35 37 36 31
5 4 2 1 0 5 2 3 2 5 2 5 2 6 3 9 7 3 6 11 17 23 26 30 30 30 31 31 31 31 30 27 26 24 24 23 19 18 19 23 28 33 31 28
2 5 4 3 2 4 2 2 3 5 5 0 3 7 6 11 7 6 9 19 29 32 35 37 37 34 30 30 33 37 34 29 25 22 21 21 21 18 18 22 25 25 27 32
7 2 2 1 1 2 1 1 3 5 4 6 5 5 7 2 5 16 20 28 33 38 40 39 37 36 35 37 41 43 39 31 28 23 19 19 18 17 16 20 25 28 30 33
6 4 6 7 2 3 5 4 3 4 2 1 11 20 7 7 9 13 20 30 35 37 37 39 38 40 42 45 45 45 37 29 28 22 20 21 16 14 15 16 21 23 26 30
3 4 3 4 5 4 1 5 6 5 4 8 5 12 10 9 8 15 20 25 27 31 35 36 39 40 44 45 46 38 33 26 25 18 16 15 14 10 11 13 14 15 19 19
3 3 3 2 3 4 3 6 7 7 6 10 11 19 9 19 12 11 19 23 23 29 31 32 36 40 43 38 39 32 28 22 20 16 13 13 13 12 9 10 10 10 11 13
4 6 4 3 6 1 7 15 16 8 5 8 10 10 5 10 13 20 18 23 27 27 31 34 39 38 33 28 31 25 19 16 16 15 13 8 12 8 7 5 6 6 7 11
9 7 3 5 5 4 2 1 4 12 5 8 5 8 9 10 22 27 28 27 25 30 34 37 36 33 32 25 24 15 11 16 12 11 7 11 6 5 4 4 5 5 8 14
6 5 3 4 4 3 6 6 6 7 7 10 10 10 11 14 14 21 16 16 24 31 32 33 29 30 28 19 11 12 20 16 13 13 12 7 6 6 7 6 5 6 9 10
4 3 4 3 5 7 3 3 9 6 6 11 10 9 7 5 3 7 16 20 25 25 29 33 27 25 21 8 10 18 15 11 15 13 10 6 6 8 6 8 9 10 11 10
5 1 5 3 3 4 5 5 8 4 4 2 5 12 11 6 10 20 23 24 23 26 30 31 22 21 18 10 12 15 15 15 11 13 8 8 8 8 9 10 10 11 12 13
6 6 3 2 1 7 10 4 6 4 4 10 14 16 18 22 25 25 24 25 27 27 30 31 31 21 17 15 14 14 14 14 12 9 11 12 11 10 10 11 12 14 15 15
2 5 5 8 6 5 17 7 11 13 17 21 19 22 24 27 28 27 27 26 28 28 28 28 25 16 16 14 15 16 14 12 10 9 9 10 10 12 12 13 15 15 16 15
0 3 2 2 3 5 17 18 16 17 21 25 29 28 25 27 27 28 30 32 29 27 25 19 16 15 11 12 9 10 9 10 8 8 10 10 9 10 11 11 12 16 17 16
3 5 4 4 4 8 19 22 19 18 17 20 21 22 27 22 24 22 24 23 21 24 26 22 20 12 15 18 14 8 8 7 8 9 9 9 9 10 11 11 15 14 13 12
6 6 5 6 10 10 12 20 18 18 23 30 34 32 29 24 25 23 25 26 24 25 27 25 24 23 19 17 17 12 10 8 7 6 9 9 9 9 10 11 12 12 9 9
Wind_Direction
174 156 217 201 197 186 182 219 261 255 207 283 254 254 277 285 283 340 57 59 58 58 57 53 48 44 32 301 277 260 264 265 259 255 257 253 250 248 245 242 240 239 237 234
76 224 231 167 204 223 217 247 270 297 212 178 279 255 261 263 70 93 82 69 60 56 48 45 44 42 37 38 24 337 296 273 263 261 261 260 260 255 251 249 247 241 236 235
205 214 214 174 194 216 230 236 264 247 318 229 251 283 231 67 107 75 67 78 70 54 51 45 36 31 26 20 10 352 332 310 286 271 262 259 263 261 256 253 247 246 240 237
231 202 222 175 203 196 244 196 239 252 233 270 13 287 258 157 113 65 47 51 59 60 52 44 35 25 19 15 10 4 354 336 306 271 256 253 258 261 267 260 255 248 242 239
223 177 200 235 233 182 244 176 204 215 194 127 225 277 253 137 144 84 54 60 67 59 48 35 22 14 12 7 4 0 359 357 339 284 286 275 268 269 268 268 263 257 246 239
233 201 162 195 212 194 156 109 67 55 103 255 206 187 223 191 175 131 161 102 66 50 44 20 11 7 4 1 359 357 353 352 349 325 277 268 270 274 272 274 268 263 256 242
235 242 164 167 176 110 148 111 278 287 211 243 342 200 264 149 100 135 176 128 33 29 19 9 4 358 355 356 352 348 344 342 340 329 311 288 267 261 264 268 268 267 264 250
192 267 198 202 218 204 187 182 173 208 208 270 328 232 280 131 125 105 42 7 8 12 357 351 349 349 345 341 341 337 334 330 325 321 313 297 282 280 271 267 265 264 258 253
162 251 11 42 78 195 180 206 195 110 133 280 222 288 333 134 144 355 7 15 1 350 344 339 336 332 332 330 331 328 324 320 315 310 300 292 287 283 273 268 266 261 258 251
198 107 308 229 127 41 202 138 140 100 233 238 239 256 224 186 185 133 342 323 329 329 331 333 329 322 320 318 318 314 307 310 305 302 302 295 288 279 278 270 265 263 260 253
128 113 267 343 183 172 142 145 79 119 141 186 262 253 282 152 135 178 249 291 304 323 330 326 320 313 306 304 305 309 304 296 295 294 300 302 304 295 281 278 274 261 253 242
198 138 153 184 315 333 57 187 166 159 232 29 152 256 135 127 165 211 281 324 333 332 328 325 320 316 308 311 299 298 300 284 279 277 292 299 301 309 290 277 268 259 263 246
180 142 128 345 327 17 192 347 92 87 76 187 165 248 199 115 8 345 336 328 327 324 322 322 317 312 308 307 308 305 302 286 274 276 290 302 312 319 302 284 273 267 254 239
107 116 182 205 132 129 161 174 170 114 141 200 243 274 214 340 331 326 321 318 318 317 316 316 315 314 312 310 310 307 300 286 261 262 278 289 295 311 305 294 281 267 253 248
112 123 89 69 89 73 91 159 173 174 172 199 181 246 293 292 299 298 301 304 305 310 316 317 314 312 311 308 312 308 299 279 255 252 269 276 293 304 299 298 290 289 265 257
9 97 73 54 58 50 278 225 211 210 213 250 258 267 263 290 297 288 299 306 309 310 313 314 316 314 308 314 317 305 294 269 242 242 258 266 281 292 289 287 291 284 265 249
99 130 139 157 135 104 285 220 213 197 191 216 245 267 283 299 309 308 311 309 304 308 310 314 321 319 313 317 320 298 288 245 226 244 245 266 301 262 255 264 277 256 229 203
151 128 100 150 148 221 237 323 187 205 217 221 259 270 274 267 288 297 305 303 303 313 316 318 324 317 314 319 318 287 228 204 210 212 242 264 272 237 232 221 220 218 203 195
144 122 141 167 208 307 219 235 169 161 240 235 228 256 270 283 305 297 311 313 312 312 312 314 317 315 315 307 288 216 192 193 208 203 269 278 260 221 228 218 209 211 216 216
95 91 129 170 160 216 276 100 128 118 248 228 185 214 237 266 280 276 323 317 318 323 323 316 308 306 311 292 255 214 206 224 204 245 260 271 247 219 219 229 216 215 212 215
141 160 168 151 216 273 219 146 137 160 228 82 243 250 249 204 238 289 298 301 310 320 326 327 300 301 291 262 236 236 257 268 243 268 252 255 248 246 249 253 254 246 231 217
159 146 167 108 118 268 181 129 182 186 261 274 287 284 278 289 288 285 287 299 307 318 324 327 316 288 281 266 244 248 254 263 257 238 236 237 239 237 241 248 252 245 236 227
166 170 172 177 206 227 181 184 210 271 256 274 278 296 302 300 289 283 294 300 304 306 315 325 327 291 270 265 263 254 249 248 241 217 214 222 233 241 247 254 253 249 240 228
241 144 170 129 180 219 245 258 273 284 280 286 288 294 302 292 292 289 288 291 295 297 309 308 322 299 296 278 254 242 233 228 220 205 206 215 228 242 255 254 259 253 239 230
183 135 186 277 285 267 272 279 298 292 298 292 296 292 298 298 295 296 298 298 293 294 297 299 281 284 289 309 277 239 221 211 215 215 211 215 229 238 251 259 260 251 246 240
188 184 185 221 225 226 248 273 289 291 299 296 295 294 291 284 279 288 290 293 299 297 291 295 290 249 269 302 276 261 234 221 227 233 218 206 222 237 243 244 239 235 231 242